Home > Weather > Titisee-Neustadt > Past weeks

Flag for Germany Past Weather in Titisee-Neustadt, Baden-Württemberg, Germany — Yesterday and Last 2 Weeks

Now
71 °F

Overcast.


Feels Like: 76 °F
Forecast: 45 / 64 °F
Wind: 2 mph from Southeast

Location: Freiburg

Current Time: Jul 2, 2016 at 2:24:32 AM

Latest Report: Jul 2, 2016 at 1:00 AM


Visibility: 41 mi

Pressure: 29.96 "Hg (27.26 "Hg at 813m altitude)

Humidity: 62%

Dew Point: 58 °F

Location of Titisee-NeustadtLocation

Past Weather in Titisee-Neustadt — Graph

°F

Titisee-Neustadt Temperature Yesterday

Maximum temperature yesterday: 80 °F (at 6:00 PM)
Minimum temperature yesterday: 59 °F (at 6:00 AM)
Average temperature yesterday: 71 °F

High & Low Weather Summary for the Past Weeks

 TemperatureHumidityPressure
High92 °F (Jun 23, 6:00 PM)99% (Jun 20, 6:00 AM)30.29 "Hg (Jun 20, 6:00 AM)
Low44 °F (Jun 20, 6:00 AM)37% (Jun 23, 6:00 PM)29.67 "Hg (Jun 17, 1:00 AM)
Average67 °F72%30.07 "Hg
* Reported Jun 17 1:00 AM — Jul 2 1:00 AM, Titisee-Neustadt, Weather by CustomWeather, © 2016

Note: Actual official high and low records may vary slightly from our data, if they occured in-between our weather recording intervals... More about our weather records

Advertising

Titisee-Neustadt Weather History for the Previous 24 Hours

Scroll right to see more
 ConditionsComfort  
Time TempWeatherWind HumidityBarometerVisibility
1:00 AM
Sat, Jul 2
71 °FOvercast.2 mph62%29.96 "Hg40 mi
12:00 AM71 °FOvercast.5 mph65%29.97 "Hg34 mi
10:00 PM
Fri, Jul 1
73 °FPassing clouds.3 mph64%29.97 "Hg37 mi
9:00 PM76 °FSunny.2 mph56%29.95 "Hg43 mi
7:00 PM79 °FSunny.5 mph50%29.96 "Hg31 mi
6:00 PM80 °FSunny.5 mph47%29.96 "Hg31 mi
4:00 PM80 °FPassing clouds.6 mph48%29.99 "Hg37 mi
3:00 PM78 °FScattered clouds.6 mph46%30.01 "Hg25 mi
1:00 PM76 °FScattered clouds.6 mph53%30.04 "Hg43 mi
12:00 PM75 °FPassing clouds.7 mph54%30.06 "Hg17 mi
10:00 AM72 °FPassing clouds.7 mph62%30.06 "Hg22 mi
9:00 AM69 °FOvercast.7 mph67%30.07 "Hg37 mi
7:00 AM62 °FOvercast.No wind90%30.06 "Hg19 mi
6:00 AM59 °FPartly sunny.1 mph94%30.06 "Hg19 mi
4:00 AM61 °FPassing clouds.1 mph90%30.04 "Hg22 mi
3:00 AM61 °FPassing clouds.1 mph91%30.05 "Hg19 mi
Weather by CustomWeather, © 2016

See weather overviewHow to use our weather pages